This is the latest recevied weather packets stored in our database for station/object K9RCP-20. If no packets are shown the sender has not sent any weather packets the latest 10 day(s).
| Time | Temp. | Humidity | Pressure | Rain* | Wind** | Luminosity | Snow |
|---|---|---|---|---|---|---|---|
| 1778347938 | 18.33° C | 63% | 1017.1 hPa | 0 mm | - | 507 W/m² | - |
| 1778347634 | 18.33° C | 63% | 1017.1 hPa | 0 mm | - | 454 W/m² | - |
| 1778347331 | 17.78° C | 64% | 1017 hPa | 0 mm | - | 454 W/m² | - |
| 1778347027 | 18.89° C | 63% | 1017.3 hPa | 0 mm | - | 422 W/m² | - |
| 1778346723 | 18.33° C | 63% | 1017.2 hPa | 0 mm | - | 380 W/m² | - |
| 1778346420 | 18.33° C | 63% | 1017.3 hPa | 0 mm | - | 402 W/m² | - |
| 1778346116 | 17.78° C | 63% | 1017.5 hPa | 0 mm | - | 384 W/m² | - |
| 1778345814 | 18.33° C | 63% | 1017.5 hPa | 0 mm | - | 387 W/m² | - |
| 1778345510 | 17.78° C | 63% | 1017.4 hPa | 0 mm | - | 361 W/m² | - |
| 1778345206 | 17.78° C | 64% | 1017.6 hPa | 0 mm | - | 426 W/m² | - |
| 1778344902 | 17.78° C | 64% | 1017.2 hPa | 0 mm | - | 393 W/m² | - |
| 1778344600 | 17.78° C | 63% | 1017.5 hPa | 0 mm | - | 389 W/m² | - |
| 1778344295 | 17.78° C | 63% | 1017.6 hPa | 0 mm | - | 438 W/m² | - |
| 1778343993 | 17.78° C | 65% | 1017.8 hPa | 0 mm | - | 427 W/m² | - |
| 1778343688 | 16.67° C | 67% | 1017.6 hPa | 0 mm | - | 383 W/m² | - |
| 1778343385 | 16.67° C | 68% | 1017.7 hPa | 0 mm | - | 352 W/m² | - |
| 1778343080 | 16.67° C | 70% | 1018 hPa | 0 mm | - | 331 W/m² | - |
| 1778342776 | 16.11° C | 70% | 1017.9 hPa | 0 mm | - | 307 W/m² | - |
| 1778342471 | 15.56° C | 73% | 1017.9 hPa | 0 mm | - | 287 W/m² | - |
| 1778342168 | 15.56° C | 75% | 1018 hPa | 0 mm | - | 246 W/m² | - |
| 1778341864 | 15° C | 75% | 1018.1 hPa | 0 mm | - | 237 W/m² | - |
| 1778341560 | 15° C | 75% | 1018 hPa | 0 mm | - | 241 W/m² | - |
| 1778341258 | 15° C | 77% | 1018.1 hPa | 0 mm | - | 262 W/m² | - |
| 1778340955 | 15.56° C | 76% | 1018 hPa | 0 mm | - | 278 W/m² | - |
| 1778340652 | 15.56° C | 74% | 1018.2 hPa | 0 mm | - | 271 W/m² | - |
* Rain latest hour (hover to see other rain measurements)
** Current wind speed in m/s (hover to see current wind gust speed)